Flag for U.S.A. Weather past 2 weeks in Kansas City, Missouri, U.S.A.

Now
77 °F

Partly sunny.


Feels Like: 79 °F
Forecast: 70 / 88 °F
Wind: 7 mph from South

Location: Kansas City Downtown Airport

Current Time: Aug 31, 2015 at 9:27:13 AM

Latest Report: Aug 31, 2015 at 8:54 AM


Visibility: 7 mi

Pressure: 29.96 "Hg

Humidity: 82%

Dew point: 71 °F

Location of Kansas CityLocation

Historic Weather in Kansas City — Graph

°F

Kansas City temperature yesterday

Maximum temperature yesterday: 85 °F (at 4:54 PM)
Minimum temperature yesterday: 68 °F (at 1:54 AM)
Average temperature yesterday: 76 °F

Past Weeks' High & Low Weather Summary

 TemperatureHumidityPressure
High90 °F (Aug 16, 3:54 PM)100% (Aug 30, 8:54 AM)30.18 "Hg (Aug 30, 8:54 AM)
Low56 °F (Aug 24, 6:54 AM)32% (Aug 24, 11:54 AM)29.63 "Hg (Aug 18, 5:54 PM)
Average74 °F68%29.97 "Hg
* Reported Aug 16 7:54 AM — Aug 31 7:54 AM, Kansas City, Weather by CustomWeather, © 2015

Note: Actual official high and low records may vary slightly from our data, if they occured in-between our weather recording intervals... More about our weather records

Advertising

Kansas City weather history for previous 24 hours

 ConditionsComfort  
Time TempWeatherWind HumidityBarometerVisibility
7:54 AM
Mon, Aug 31
76 °FPartly sunny.3 mph85%29.95 "Hg6 mi
6:54 AM73 °FFog.No wind88%29.94 "Hg6 mi
5:54 AM74 °FClear.5 mph88%29.93 "Hg8 mi
4:54 AM75 °FClear.5 mph85%29.92 "Hg8 mi
3:54 AM75 °FClear.6 mph88%29.92 "Hg8 mi
2:54 AM76 °FClear.No wind85%29.92 "Hg8 mi
1:54 AM76 °FClear.No wind85%29.93 "Hg9 mi
12:54 AM76 °FPassing clouds.5 mph85%29.93 "Hg10 mi
11:54 PM
Sun, Aug 30
78 °FClear.7 mph79%29.93 "Hg10 mi
10:54 PM79 °FPassing clouds.5 mph77%29.94 "Hg10 mi
9:54 PM80 °FClear.6 mph74%29.94 "Hg10 mi
8:54 PM80 °FClear.6 mph71%29.93 "Hg10 mi
7:54 PM82 °FPartly sunny.8 mph65%29.92 "Hg10 mi
6:54 PM84 °FSunny.5 mph61%29.92 "Hg10 mi
5:54 PM85 °FPassing clouds.7 mph59%29.92 "Hg10 mi
4:54 PM85 °FPassing clouds.6 mph61%29.94 "Hg10 mi
3:54 PM84 °FPassing clouds.5 mph63%29.95 "Hg10 mi
2:54 PM83 °FBroken clouds.6 mph63%29.97 "Hg10 mi
1:54 PM82 °FScattered clouds.8 mph67%29.98 "Hg10 mi
12:54 PM81 °FScattered clouds.6 mph69%30.01 "Hg9 mi
11:54 AM80 °FPassing clouds.7 mph74%30.03 "Hg9 mi
11:01 AM76 °FPartly sunny.5 mph82%30.06 "Hg8 mi
9:54 AM72 °FFog.No wind91%30.03 "Hg4 mi
Weather by CustomWeather, © 2015

See weather overviewHow to use our weather pages